Leesburg, FL

1:20 AM EST on December 08, 2019 (GMT -0500)
Leesburg Regional

Weather History for KLEE - October, 2019

Change the Weather History Date:

Friday, October 4, 2019

  Actual Average Record
Temperature  
Mean Temperature 82 °F -  
Max Temperature 93 °F 86 °F 97 °F (1990)
Min Temperature 71 °F 66 °F 52 °F (1974)
Cooling Degree Days 17    
Growing Degree Days 32 (Base 50)    
Moisture  
Dew Point 70 °F    
Average Humidity 69    
Maximum Humidity 87    
Minimum Humidity 47    
Precipitation  
Precipitation 0.00 in - - ()
Sea Level Pressure  
Sea Level Pressure 30.01 in    
Wind  
Wind Speed 4 mph (East)    
Max Wind Speed 10 mph    
Max Gust Speed -    
Visibility 10 miles    
Events      
Averages and records for this station are not official NWS values.
T = Trace of Precipitation, MM = Missing Value Source: NWS Daily Summary

Daily Weather History Graph

Daily Weather History Graph

Search for Another Location

Airport or City:

Astronomy

Oct. 04, 2019 Rise Set
Actual Time 7:21 AM EDT 7:09 PM EDT
Civil Twilight 6:58 AM EDT 7:33 PM EDT
Nautical Twilight 6:30 AM EDT 8:00 PM EDT
Astronomical Twilight 6:03 AM EDT 8:28 PM EDT
Moon 1:27 PM EDT (10/4) No Moon Set
Length of Visible Light 12h 35m
Length of Day
11h 47m
Waxing Crescent, 39% of the Moon is Illuminated
Oct 4
Waxing Crescent
Oct 5
First Quarter
Oct 13
Full
Oct 21
Last Quarter
Oct 27
New

Hourly Weather History & Observations

Time (EDT) Temp. Heat Index Dew Point Humidity Pressure Visibility Wind Dir Wind Speed Gust Speed Precip Events Conditions
12:53 AM 75.0 °F - 68.0 °F 79% 30.03 in 10.0 mi East 3.5 mph - N/A   Clear
1:53 AM 75.0 °F - 68.0 °F 79% 30.02 in 10.0 mi East 4.6 mph - N/A   Clear
2:53 AM 73.9 °F - 68.0 °F 82% 30.01 in 10.0 mi East 3.5 mph - N/A   Clear
3:53 AM 72.0 °F - 68.0 °F 87% 29.99 in 10.0 mi Calm Calm - N/A   Clear
4:53 AM 71.1 °F - 66.9 °F 87% 30.01 in 10.0 mi NNE 3.5 mph - N/A   Clear
5:53 AM 71.1 °F - 66.9 °F 87% 30.01 in 10.0 mi NE 4.6 mph - N/A   Clear
6:53 AM 72.0 °F - 68.0 °F 87% 30.02 in 10.0 mi NNE 5.8 mph - N/A   Clear
7:53 AM 72.0 °F - 68.0 °F 87% 30.04 in 10.0 mi Calm Calm - N/A   Clear
8:53 AM 78.1 °F - 70.0 °F 76% 30.05 in 10.0 mi Calm Calm - N/A   Clear
9:40 AM 82.9 °F 87.0 °F 70.0 °F 65% 30.06 in 10.0 mi Calm Calm - N/A   Mostly Cloudy
9:53 AM 82.9 °F 87.0 °F 70.0 °F 65% 30.06 in 10.0 mi NNE 3.5 mph - N/A   Mostly Cloudy
10:18 AM 84.0 °F 88.4 °F 70.0 °F 63% 30.05 in 10.0 mi Variable 6.9 mph - N/A   Scattered Clouds
10:53 AM 86.0 °F 90.7 °F 70.0 °F 59% 30.04 in 10.0 mi ESE 6.9 mph - N/A   Scattered Clouds
11:53 AM 86.0 °F 90.7 °F 70.0 °F 59% 30.04 in 10.0 mi NE 5.8 mph - N/A   Partly Cloudy
12:53 PM 88.0 °F 92.9 °F 70.0 °F 55% 30.03 in 10.0 mi Variable 4.6 mph - N/A   Mostly Cloudy
1:53 PM 91.0 °F 96.6 °F 70.0 °F 50% 29.99 in 10.0 mi SSE 4.6 mph - N/A   Partly Cloudy
2:53 PM 91.0 °F 95.6 °F 69.1 °F 48% 29.96 in 10.0 mi South 5.8 mph - N/A   Partly Cloudy
3:53 PM 93.0 °F 99.0 °F 70.0 °F 47% 29.94 in 10.0 mi Variable 4.6 mph - N/A   Partly Cloudy
4:53 PM 91.9 °F 96.9 °F 69.1 °F 47% 29.94 in 10.0 mi ESE 8.1 mph - N/A   Partly Cloudy
5:53 PM 91.0 °F 96.6 °F 70.0 °F 50% 29.94 in 10.0 mi ENE 10.4 mph - N/A   Clear
6:53 PM 87.1 °F 92.8 °F 71.1 °F 59% 29.95 in 10.0 mi ENE 10.4 mph - N/A   Partly Cloudy
7:53 PM 84.0 °F 89.6 °F 72.0 °F 67% 29.97 in 10.0 mi ENE 6.9 mph - N/A   Scattered Clouds
8:53 PM 82.0 °F 86.7 °F 72.0 °F 71% 29.99 in 10.0 mi East 8.1 mph - N/A   Clear
9:53 PM 81.0 °F 85.8 °F 73.0 °F 77% 30.00 in 10.0 mi East 6.9 mph - N/A   Clear
10:53 PM 80.1 °F 84.2 °F 73.0 °F 79% 30.01 in 10.0 mi East 5.8 mph - N/A   Clear
11:53 PM 79.0 °F - 73.0 °F 82% 30.01 in 10.0 mi East 6.9 mph - N/A   Clear